Year,Month,Day,Hour,Minute,Value (Times are PST for temperature in C)
2019,04,01,00,00,5.90
2019,04,01,00,01,5.80
2019,04,01,00,02,5.80
2019,04,01,00,03,5.80
2019,04,01,00,04,5.80
2019,04,01,00,05,5.80
2019,04,01,00,06,5.80
2019,04,01,00,07,5.80
2019,04,01,00,08,5.80
2019,04,01,00,09,5.80
2019,04,01,00,10,5.80
2019,04,01,00,11,5.80
2019,04,01,00,12,5.80
2019,04,01,00,13,5.80
2019,04,01,00,14,5.80
2019,04,01,00,15,5.80
2019,04,01,00,16,5.80
2019,04,01,00,17,5.80
2019,04,01,00,18,5.80
2019,04,01,00,19,5.80
2019,04,01,00,20,5.80
2019,04,01,00,21,5.80
2019,04,01,00,22,5.80
2019,04,01,00,23,5.80
2019,04,01,00,24,5.80
2019,04,01,00,25,5.80
2019,04,01,00,26,5.80
2019,04,01,00,27,5.80
2019,04,01,00,28,5.80
2019,04,01,00,29,5.80
2019,04,01,00,30,5.70
2019,04,01,00,31,5.70
2019,04,01,00,32,5.70
2019,04,01,00,33,5.70
2019,04,01,00,34,5.70
2019,04,01,00,35,5.70
2019,04,01,00,36,5.70
2019,04,01,00,37,5.70
2019,04,01,00,38,5.70
2019,04,01,00,39,5.70
2019,04,01,00,40,5.70
2019,04,01,00,41,5.60
2019,04,01,00,42,5.60
2019,04,01,00,43,5.60
2019,04,01,00,44,5.60
2019,04,01,00,45,5.60
2019,04,01,00,46,5.60
2019,04,01,00,47,5.60
2019,04,01,00,48,5.50
2019,04,01,00,49,5.50
2019,04,01,00,50,5.40
2019,04,01,00,51,5.40
2019,04,01,00,52,5.40
2019,04,01,00,53,5.30
2019,04,01,00,54,5.30
2019,04,01,00,55,5.30
2019,04,01,00,56,5.40
2019,04,01,00,57,5.50
2019,04,01,00,58,5.60
2019,04,01,00,59,5.60
2019,04,01,01,00,5.70
2019,04,01,01,01,5.70
2019,04,01,01,02,5.70
2019,04,01,01,03,5.70
2019,04,01,01,04,5.70
2019,04,01,01,05,5.70
2019,04,01,01,06,5.70
2019,04,01,01,07,5.70
2019,04,01,01,08,5.70
2019,04,01,01,09,5.70
2019,04,01,01,10,5.80
2019,04,01,01,11,5.80
2019,04,01,01,12,5.80
2019,04,01,01,13,5.80
2019,04,01,01,14,5.80
2019,04,01,01,15,5.80
2019,04,01,01,16,5.80
2019,04,01,01,17,5.80
2019,04,01,01,18,5.80
2019,04,01,01,19,5.90
2019,04,01,01,20,5.80
2019,04,01,01,21,5.80
2019,04,01,01,22,5.80
2019,04,01,01,23,5.80
2019,04,01,01,24,5.70
2019,04,01,01,25,5.70
2019,04,01,01,26,5.60
2019,04,01,01,27,5.60
2019,04,01,01,28,5.50
2019,04,01,01,29,5.40
2019,04,01,01,30,5.40
2019,04,01,01,31,5.40
2019,04,01,01,32,5.40
2019,04,01,01,33,5.40
2019,04,01,01,34,5.50
2019,04,01,01,35,5.50
2019,04,01,01,36,5.40
2019,04,01,01,37,5.40
2019,04,01,01,38,5.40
2019,04,01,01,39,5.30
2019,04,01,01,40,5.30
2019,04,01,01,41,5.20
2019,04,01,01,42,5.20
2019,04,01,01,43,5.10
2019,04,01,01,44,5.00
2019,04,01,01,45,4.90
2019,04,01,01,46,4.80
2019,04,01,01,47,4.80
2019,04,01,01,48,4.70
2019,04,01,01,49,4.70
2019,04,01,01,50,4.70
2019,04,01,01,51,4.60
2019,04,01,01,52,4.60
2019,04,01,01,53,4.50
2019,04,01,01,54,4.50
2019,04,01,01,55,4.40
2019,04,01,01,56,4.40
2019,04,01,01,57,4.40
2019,04,01,01,58,4.30
2019,04,01,01,59,4.30
2019,04,01,02,00,4.30
2019,04,01,02,01,4.30
2019,04,01,02,02,4.30
2019,04,01,02,03,4.30
2019,04,01,02,04,4.30
2019,04,01,02,05,4.30
2019,04,01,02,06,4.30
2019,04,01,02,07,4.30
2019,04,01,02,08,4.30
2019,04,01,02,09,4.40
2019,04,01,02,10,4.40
2019,04,01,02,11,4.40
2019,04,01,02,12,4.50
2019,04,01,02,13,4.50
2019,04,01,02,14,4.60
2019,04,01,02,15,4.60
2019,04,01,02,16,4.60
2019,04,01,02,17,4.70
2019,04,01,02,18,4.70
2019,04,01,02,19,4.70
2019,04,01,02,20,4.80
2019,04,01,02,21,4.80
2019,04,01,02,22,4.80
2019,04,01,02,23,4.80
2019,04,01,02,24,4.80
2019,04,01,02,25,4.80
2019,04,01,02,26,4.80
2019,04,01,02,27,4.80
2019,04,01,02,28,4.80
2019,04,01,02,29,4.80
2019,04,01,02,30,4.80
2019,04,01,02,31,4.80
2019,04,01,02,32,4.80
2019,04,01,02,33,4.80
2019,04,01,02,34,4.70
2019,04,01,02,35,4.70
2019,04,01,02,36,4.70
2019,04,01,02,37,4.60
2019,04,01,02,38,4.50
2019,04,01,02,39,4.50
2019,04,01,02,40,4.40
2019,04,01,02,41,4.40
2019,04,01,02,42,4.30
2019,04,01,02,43,4.30
2019,04,01,02,44,4.30
2019,04,01,02,45,4.30
2019,04,01,02,46,4.30
2019,04,01,02,47,4.30
2019,04,01,02,48,4.30
2019,04,01,02,49,4.40
2019,04,01,02,50,4.40
2019,04,01,02,51,4.40
2019,04,01,02,52,4.50
2019,04,01,02,53,4.50
2019,04,01,02,54,4.60
2019,04,01,02,55,4.70
2019,04,01,02,56,4.70
2019,04,01,02,57,4.70
2019,04,01,02,58,4.80
2019,04,01,02,59,4.80
2019,04,01,03,00,4.80
2019,04,01,03,01,4.80
2019,04,01,03,02,4.70
2019,04,01,03,03,4.70
2019,04,01,03,04,4.70
2019,04,01,03,05,4.70
2019,04,01,03,06,4.70
2019,04,01,03,07,4.70
2019,04,01,03,08,4.70
2019,04,01,03,09,4.70
2019,04,01,03,10,4.70
2019,04,01,03,11,4.80
2019,04,01,03,12,4.80
2019,04,01,03,13,4.80
2019,04,01,03,14,4.80
2019,04,01,03,15,4.80
2019,04,01,03,16,4.70
2019,04,01,03,17,4.70
2019,04,01,03,18,4.70
2019,04,01,03,19,4.70
2019,04,01,03,20,4.70
2019,04,01,03,21,4.70
2019,04,01,03,22,4.70
2019,04,01,03,23,4.70
2019,04,01,03,24,4.70
2019,04,01,03,25,4.80
2019,04,01,03,26,4.80
2019,04,01,03,27,4.80
2019,04,01,03,28,4.80
2019,04,01,03,29,4.80
2019,04,01,03,30,4.80
2019,04,01,03,31,4.80
2019,04,01,03,32,4.80
2019,04,01,03,33,4.80
2019,04,01,03,34,4.90
2019,04,01,03,35,4.90
2019,04,01,03,36,5.00
2019,04,01,03,37,5.00
2019,04,01,03,38,5.10
2019,04,01,03,39,5.10
2019,04,01,03,40,5.10
2019,04,01,03,41,5.10
2019,04,01,03,42,5.10
2019,04,01,03,43,5.10
2019,04,01,03,44,5.10
2019,04,01,03,45,5.00
2019,04,01,03,46,5.00
2019,04,01,03,47,5.00
2019,04,01,03,48,5.00
2019,04,01,03,49,4.90
2019,04,01,03,50,4.90
2019,04,01,03,51,4.90
2019,04,01,03,52,4.80
2019,04,01,03,53,4.80
2019,04,01,03,54,4.80
2019,04,01,03,55,4.80
2019,04,01,03,56,4.70
2019,04,01,03,57,4.70
2019,04,01,03,58,4.70
2019,04,01,03,59,4.70
2019,04,01,04,00,4.60
2019,04,01,04,01,4.60
2019,04,01,04,02,4.60
2019,04,01,04,03,4.60
2019,04,01,04,04,4.50
2019,04,01,04,05,4.50
2019,04,01,04,06,4.40
2019,04,01,04,07,4.40
2019,04,01,04,08,4.30
2019,04,01,04,09,4.30
2019,04,01,04,10,4.30
2019,04,01,04,11,4.20
2019,04,01,04,12,4.10
2019,04,01,04,13,4.10
2019,04,01,04,14,4.00
2019,04,01,04,15,4.00
2019,04,01,04,16,4.00
2019,04,01,04,17,3.90
2019,04,01,04,18,3.90
2019,04,01,04,19,3.90
2019,04,01,04,20,3.90
2019,04,01,04,21,3.90
2019,04,01,04,22,3.90
2019,04,01,04,23,3.90
2019,04,01,04,24,3.80
2019,04,01,04,25,3.80
2019,04,01,04,26,3.90
2019,04,01,04,27,3.90
2019,04,01,04,28,3.90
2019,04,01,04,29,3.90
2019,04,01,04,30,3.80
2019,04,01,04,31,3.80
2019,04,01,04,32,3.80
2019,04,01,04,33,3.80
2019,04,01,04,34,3.80
2019,04,01,04,35,3.80
2019,04,01,04,36,3.70
2019,04,01,04,37,3.70
2019,04,01,04,38,3.70
2019,04,01,04,39,3.70
2019,04,01,04,40,3.70
2019,04,01,04,41,3.70
2019,04,01,04,42,3.70
2019,04,01,04,43,3.60
2019,04,01,04,44,3.60
2019,04,01,04,45,3.60
2019,04,01,04,46,3.70
2019,04,01,04,47,3.70
2019,04,01,04,48,3.70
2019,04,01,04,49,3.70
2019,04,01,04,50,3.70
2019,04,01,04,51,3.70
2019,04,01,04,52,3.70
2019,04,01,04,53,3.70
2019,04,01,04,54,3.70
2019,04,01,04,55,3.70
2019,04,01,04,56,3.70
2019,04,01,04,57,3.60
2019,04,01,04,58,3.60
2019,04,01,04,59,3.60
2019,04,01,05,00,3.60
2019,04,01,05,01,3.60
2019,04,01,05,02,3.60
2019,04,01,05,03,3.60
2019,04,01,05,04,3.60
2019,04,01,05,05,3.60
2019,04,01,05,06,3.60
2019,04,01,05,07,3.60
2019,04,01,05,08,3.60
2019,04,01,05,09,3.60
2019,04,01,05,10,3.60
2019,04,01,05,11,3.60
2019,04,01,05,12,3.50
2019,04,01,05,13,3.40
2019,04,01,05,14,3.40
2019,04,01,05,15,3.40
2019,04,01,05,16,3.40
2019,04,01,05,17,3.40
2019,04,01,05,18,3.40
2019,04,01,05,19,3.40
2019,04,01,05,20,3.40
2019,04,01,05,21,3.40
2019,04,01,05,22,3.40
2019,04,01,05,23,3.40
2019,04,01,05,24,3.40
2019,04,01,05,25,3.40
2019,04,01,05,26,3.40
2019,04,01,05,27,3.40
2019,04,01,05,28,3.50
2019,04,01,05,29,3.50
2019,04,01,05,30,3.50
2019,04,01,05,31,3.50
2019,04,01,05,32,3.50
2019,04,01,05,33,3.50
2019,04,01,05,34,3.60
2019,04,01,05,35,3.60
2019,04,01,05,36,3.60
2019,04,01,05,37,3.60
2019,04,01,05,38,3.60
2019,04,01,05,39,3.60
2019,04,01,05,40,3.60
2019,04,01,05,41,3.50
2019,04,01,05,42,3.50
2019,04,01,05,43,3.50
2019,04,01,05,44,3.40
2019,04,01,05,45,3.40
2019,04,01,05,46,3.40
2019,04,01,05,47,3.40
2019,04,01,05,48,3.30
2019,04,01,05,49,3.30
2019,04,01,05,50,3.30
2019,04,01,05,51,3.30
2019,04,01,05,52,3.30
2019,04,01,05,53,3.30
2019,04,01,05,54,3.30
2019,04,01,05,55,3.30
2019,04,01,05,56,3.30
2019,04,01,05,57,3.30
2019,04,01,05,58,3.30
2019,04,01,05,59,3.30
2019,04,01,06,00,3.30
2019,04,01,06,01,3.30
2019,04,01,06,02,3.40
2019,04,01,06,03,3.40
2019,04,01,06,04,3.40
2019,04,01,06,05,3.40
2019,04,01,06,06,3.40
2019,04,01,06,07,3.40
2019,04,01,06,08,3.30
2019,04,01,06,09,3.30
2019,04,01,06,10,3.30
2019,04,01,06,11,3.20
2019,04,01,06,12,3.20
2019,04,01,06,13,3.20
2019,04,01,06,14,3.20
2019,04,01,06,15,3.20
2019,04,01,06,16,3.20
2019,04,01,06,17,3.20
2019,04,01,06,18,3.20
2019,04,01,06,19,3.20
2019,04,01,06,20,3.20
2019,04,01,06,21,3.20
2019,04,01,06,22,3.20
2019,04,01,06,23,3.20
2019,04,01,06,24,3.20
2019,04,01,06,25,3.20
2019,04,01,06,26,3.20
2019,04,01,06,27,3.20
2019,04,01,06,28,3.20
2019,04,01,06,29,3.20
2019,04,01,06,30,3.20
2019,04,01,06,31,3.20
2019,04,01,06,32,3.30
2019,04,01,06,33,3.30
2019,04,01,06,34,3.30
2019,04,01,06,35,3.20
2019,04,01,06,36,3.20
2019,04,01,06,37,3.20
2019,04,01,06,38,3.20
2019,04,01,06,39,3.20
2019,04,01,06,40,3.20
2019,04,01,06,41,3.10
2019,04,01,06,42,3.10
2019,04,01,06,43,3.10
2019,04,01,06,44,3.00
2019,04,01,06,45,3.00
2019,04,01,06,46,2.90
2019,04,01,06,47,2.90
2019,04,01,06,48,2.90
2019,04,01,06,49,2.80
2019,04,01,06,50,2.80
2019,04,01,06,51,2.80
2019,04,01,06,52,2.80
2019,04,01,06,53,2.80
2019,04,01,06,54,2.80
2019,04,01,06,55,2.90
2019,04,01,06,56,2.90
2019,04,01,06,57,2.90
2019,04,01,06,58,3.00
2019,04,01,06,59,3.00
2019,04,01,07,00,3.00
2019,04,01,07,01,3.00
2019,04,01,07,02,3.00
2019,04,01,07,03,3.00
2019,04,01,07,04,3.00
2019,04,01,07,05,2.90
2019,04,01,07,06,2.90
2019,04,01,07,07,2.90
2019,04,01,07,08,2.80
2019,04,01,07,09,2.80
2019,04,01,07,10,2.80
2019,04,01,07,11,2.80
2019,04,01,07,12,2.70
2019,04,01,07,13,2.70
2019,04,01,07,14,2.70
2019,04,01,07,15,2.70
2019,04,01,07,16,2.70
2019,04,01,07,17,2.70
2019,04,01,07,18,2.80
2019,04,01,07,19,2.80
2019,04,01,07,20,2.80
2019,04,01,07,21,2.80
2019,04,01,07,22,2.80
2019,04,01,07,23,2.90
2019,04,01,07,24,2.90
2019,04,01,07,25,3.00
2019,04,01,07,26,3.00
2019,04,01,07,27,3.00
2019,04,01,07,28,3.10
2019,04,01,07,29,3.10
2019,04,01,07,30,3.10
2019,04,01,07,31,3.20
2019,04,01,07,32,3.20
2019,04,01,07,33,3.20
2019,04,01,07,34,3.30
2019,04,01,07,35,3.30
2019,04,01,07,36,3.40
2019,04,01,07,37,3.40
2019,04,01,07,38,3.50
2019,04,01,07,39,3.60
2019,04,01,07,40,3.60
2019,04,01,07,41,3.70
2019,04,01,07,42,3.70
2019,04,01,07,43,3.80
2019,04,01,07,44,3.80
2019,04,01,07,45,3.90
2019,04,01,07,46,4.00
2019,04,01,07,47,4.00
2019,04,01,07,48,4.10
2019,04,01,07,49,4.20
2019,04,01,07,50,4.30
2019,04,01,07,51,4.30
2019,04,01,07,52,4.40
2019,04,01,07,53,4.50
2019,04,01,07,54,4.60
2019,04,01,07,55,4.60
2019,04,01,07,56,4.70
2019,04,01,07,57,4.80
2019,04,01,07,58,4.90
2019,04,01,07,59,4.90
2019,04,01,08,00,5.00
2019,04,01,08,01,5.10
2019,04,01,08,02,5.20
2019,04,01,08,03,5.20
2019,04,01,08,04,5.30
2019,04,01,08,05,5.30
2019,04,01,08,06,5.40
2019,04,01,08,07,5.40
2019,04,01,08,08,5.50
2019,04,01,08,09,5.50
2019,04,01,08,10,5.60
2019,04,01,08,11,5.60
2019,04,01,08,12,5.70
2019,04,01,08,13,5.70
2019,04,01,08,14,5.70
2019,04,01,08,15,5.80
2019,04,01,08,16,5.80
2019,04,01,08,17,5.80
2019,04,01,08,18,5.90
2019,04,01,08,19,5.90
2019,04,01,08,20,6.00
2019,04,01,08,21,6.00
2019,04,01,08,22,6.10
2019,04,01,08,23,6.10
2019,04,01,08,24,6.20
2019,04,01,08,25,6.20
2019,04,01,08,26,6.30
2019,04,01,08,27,6.30
2019,04,01,08,28,6.40
2019,04,01,08,29,6.40
2019,04,01,08,30,6.50
2019,04,01,08,31,6.60
2019,04,01,08,32,6.60
2019,04,01,08,33,6.70
2019,04,01,08,34,6.80
2019,04,01,08,35,6.90
2019,04,01,08,36,7.00
2019,04,01,08,37,7.10
2019,04,01,08,38,7.20
2019,04,01,08,39,7.30
2019,04,01,08,40,7.30
2019,04,01,08,41,7.40
2019,04,01,08,42,7.50
2019,04,01,08,43,7.50
2019,04,01,08,44,7.70
2019,04,01,08,45,7.70
2019,04,01,08,46,7.80
2019,04,01,08,47,7.90
2019,04,01,08,48,8.00
2019,04,01,08,49,8.20
2019,04,01,08,50,8.30
2019,04,01,08,51,8.50
2019,04,01,08,52,8.60
2019,04,01,08,53,8.70
2019,04,01,08,54,8.90
2019,04,01,08,55,9.00
2019,04,01,08,56,9.10
2019,04,01,08,57,9.20
2019,04,01,08,58,9.30
2019,04,01,08,59,9.40
2019,04,01,09,00,9.50
2019,04,01,09,01,9.70
2019,04,01,09,02,9.80
2019,04,01,09,03,9.90
2019,04,01,09,04,10.10
2019,04,01,09,05,10.20
2019,04,01,09,06,10.30
2019,04,01,09,07,10.30
2019,04,01,09,08,10.40
2019,04,01,09,09,10.50
2019,04,01,09,10,10.60
2019,04,01,09,11,10.70
2019,04,01,09,12,10.80
2019,04,01,09,13,10.80
2019,04,01,09,14,10.90
2019,04,01,09,15,11.00
2019,04,01,09,16,11.00
2019,04,01,09,17,11.10
2019,04,01,09,18,11.10
2019,04,01,09,19,11.10
2019,04,01,09,20,11.20
2019,04,01,09,21,11.20
2019,04,01,09,22,11.30
2019,04,01,09,23,11.30
2019,04,01,09,24,11.40
2019,04,01,09,25,11.40
2019,04,01,09,26,11.30
2019,04,01,09,27,11.20
2019,04,01,09,28,11.10
2019,04,01,09,29,11.10
2019,04,01,09,30,11.10
2019,04,01,09,31,11.10
2019,04,01,09,32,11.10
2019,04,01,09,33,11.10
2019,04,01,09,34,11.00
2019,04,01,09,35,11.00
2019,04,01,09,36,11.00
2019,04,01,09,37,11.00
2019,04,01,09,38,10.90
2019,04,01,09,39,10.90
2019,04,01,09,40,10.80
2019,04,01,09,41,10.80
2019,04,01,09,42,10.80
2019,04,01,09,43,10.80
2019,04,01,09,44,10.80
2019,04,01,09,45,10.80
2019,04,01,09,46,10.90
2019,04,01,09,47,11.00
2019,04,01,09,48,11.20
2019,04,01,09,49,11.30
2019,04,01,09,50,11.40
2019,04,01,09,51,11.50
2019,04,01,09,52,11.50
2019,04,01,09,53,11.60
2019,04,01,09,54,11.60
2019,04,01,09,55,11.60
2019,04,01,09,56,11.60
2019,04,01,09,57,11.60
2019,04,01,09,58,11.60
2019,04,01,09,59,11.60
2019,04,01,10,00,11.60
2019,04,01,10,01,11.60
2019,04,01,10,02,11.70
2019,04,01,10,03,11.80
2019,04,01,10,04,11.80
2019,04,01,10,05,11.90
2019,04,01,10,06,12.00
2019,04,01,10,07,12.10
2019,04,01,10,08,12.20
2019,04,01,10,09,12.30
2019,04,01,10,10,12.40
2019,04,01,10,11,12.40
2019,04,01,10,12,12.50
2019,04,01,10,13,12.60
2019,04,01,10,14,12.60
2019,04,01,10,15,12.60
2019,04,01,10,16,12.60
2019,04,01,10,17,12.60
2019,04,01,10,18,12.60
2019,04,01,10,19,12.60
2019,04,01,10,20,12.60
2019,04,01,10,21,12.60
2019,04,01,10,22,12.60
2019,04,01,10,23,12.70
2019,04,01,10,24,12.70
2019,04,01,10,25,12.80
2019,04,01,10,26,12.80
2019,04,01,10,27,12.90
2019,04,01,10,28,12.90
2019,04,01,10,29,13.00
2019,04,01,10,30,13.10
2019,04,01,10,31,13.20
2019,04,01,10,32,13.30
2019,04,01,10,33,13.50
2019,04,01,10,34,13.60
2019,04,01,10,35,13.70
2019,04,01,10,36,13.80
2019,04,01,10,37,13.90
2019,04,01,10,38,13.90
2019,04,01,10,39,13.90
2019,04,01,10,40,13.90
2019,04,01,10,41,13.90
2019,04,01,10,42,13.90
2019,04,01,10,43,13.90
2019,04,01,10,44,13.90
2019,04,01,10,45,13.90
2019,04,01,10,46,14.00
2019,04,01,10,47,14.20
2019,04,01,10,48,14.20
2019,04,01,10,49,14.30
2019,04,01,10,50,14.40
2019,04,01,10,51,14.50
2019,04,01,10,52,14.60
2019,04,01,10,53,14.70
2019,04,01,10,54,14.70
2019,04,01,10,55,14.70
2019,04,01,10,56,14.70
2019,04,01,10,57,14.70
2019,04,01,10,58,14.70
2019,04,01,10,59,14.70
2019,04,01,11,00,14.80
2019,04,01,11,01,14.90
2019,04,01,11,02,15.00
2019,04,01,11,03,15.20
2019,04,01,11,04,15.30
2019,04,01,11,05,15.40
2019,04,01,11,06,15.60
2019,04,01,11,07,15.70
2019,04,01,11,08,15.80
2019,04,01,11,09,15.90
2019,04,01,11,10,16.00
2019,04,01,11,11,16.10
2019,04,01,11,12,16.20
2019,04,01,11,13,16.20
2019,04,01,11,14,16.20
2019,04,01,11,15,16.30
2019,04,01,11,16,16.30
2019,04,01,11,17,16.30
2019,04,01,11,18,16.30
2019,04,01,11,19,16.40
2019,04,01,11,20,16.40
2019,04,01,11,21,16.50
2019,04,01,11,22,16.50
2019,04,01,11,23,16.60
2019,04,01,11,24,16.60
2019,04,01,11,25,16.60
2019,04,01,11,26,16.60
2019,04,01,11,27,16.60
2019,04,01,11,28,16.60
2019,04,01,11,29,16.60
2019,04,01,11,30,16.70
2019,04,01,11,31,16.70
2019,04,01,11,32,16.80
2019,04,01,11,33,16.80
2019,04,01,11,34,16.90
2019,04,01,11,35,16.90
2019,04,01,11,36,17.00
2019,04,01,11,37,17.10
2019,04,01,11,38,17.20
2019,04,01,11,39,17.20
2019,04,01,11,40,17.20
2019,04,01,11,41,17.20
2019,04,01,11,42,17.20
2019,04,01,11,43,17.30
2019,04,01,11,44,17.30
2019,04,01,11,45,17.30
2019,04,01,11,46,17.30
2019,04,01,11,47,17.30
2019,04,01,11,48,17.30
2019,04,01,11,49,17.30
2019,04,01,11,50,17.30
2019,04,01,11,51,17.20
2019,04,01,11,52,17.20
2019,04,01,11,53,17.20
2019,04,01,11,54,17.20
2019,04,01,11,55,17.20
2019,04,01,11,56,17.30
2019,04,01,11,57,17.40
2019,04,01,11,58,17.40
2019,04,01,11,59,17.50
2019,04,01,12,00,17.50
2019,04,01,12,01,17.60
2019,04,01,12,02,17.60
2019,04,01,12,03,17.60
2019,04,01,12,04,17.60
2019,04,01,12,05,17.70
2019,04,01,12,06,17.70
2019,04,01,12,07,17.70
2019,04,01,12,08,17.80
2019,04,01,12,09,17.80
2019,04,01,12,10,17.80
2019,04,01,12,11,17.80
2019,04,01,12,12,17.90
2019,04,01,12,13,17.90
2019,04,01,12,14,17.90
2019,04,01,12,15,17.90
2019,04,01,12,16,17.90
2019,04,01,12,17,17.90
2019,04,01,12,18,18.00
2019,04,01,12,19,18.00
2019,04,01,12,20,18.10
2019,04,01,12,21,18.10
2019,04,01,12,22,18.10
2019,04,01,12,23,18.20
2019,04,01,12,24,18.20
2019,04,01,12,25,18.20
2019,04,01,12,26,18.30
2019,04,01,12,27,18.40
2019,04,01,12,28,18.50
2019,04,01,12,29,18.60
2019,04,01,12,30,18.70
2019,04,01,12,31,18.70
2019,04,01,12,32,18.80
2019,04,01,12,33,18.80
2019,04,01,12,34,18.80
2019,04,01,12,35,18.80
2019,04,01,12,36,18.80
2019,04,01,12,37,18.80
2019,04,01,12,38,18.80
2019,04,01,12,39,18.80
2019,04,01,12,40,18.80
2019,04,01,12,41,18.80
2019,04,01,12,42,18.90
2019,04,01,12,43,19.00
2019,04,01,12,44,19.00
2019,04,01,12,45,19.10
2019,04,01,12,46,19.20
2019,04,01,12,47,19.20
2019,04,01,12,48,19.20
2019,04,01,12,49,19.20
2019,04,01,12,50,19.30
2019,04,01,12,51,19.30
2019,04,01,12,52,19.40
2019,04,01,12,53,19.40
2019,04,01,12,54,19.30
2019,04,01,12,55,19.30
2019,04,01,12,56,19.30
2019,04,01,12,57,19.30
2019,04,01,12,58,19.20
2019,04,01,12,59,19.20
2019,04,01,13,00,19.10
2019,04,01,13,01,19.10
2019,04,01,13,02,19.10
2019,04,01,13,03,19.20
2019,04,01,13,04,19.20
2019,04,01,13,05,19.30
2019,04,01,13,06,19.30
2019,04,01,13,07,19.40
2019,04,01,13,08,19.30
2019,04,01,13,09,19.30
2019,04,01,13,10,19.30
2019,04,01,13,11,19.20
2019,04,01,13,12,19.20
2019,04,01,13,13,19.30
2019,04,01,13,14,19.30
2019,04,01,13,15,19.30
2019,04,01,13,16,19.30
2019,04,01,13,17,19.20
2019,04,01,13,18,19.20
2019,04,01,13,19,19.10
2019,04,01,13,20,19.10
2019,04,01,13,21,19.10
2019,04,01,13,22,19.10
2019,04,01,13,23,19.10
2019,04,01,13,24,19.20
2019,04,01,13,25,19.20
2019,04,01,13,26,19.20
2019,04,01,13,27,19.20
2019,04,01,13,28,19.20
2019,04,01,13,29,19.20
2019,04,01,13,30,19.10
2019,04,01,13,31,19.10
2019,04,01,13,32,19.10
2019,04,01,13,33,19.10
2019,04,01,13,34,19.20
2019,04,01,13,35,19.30
2019,04,01,13,36,19.40
2019,04,01,13,37,19.40
2019,04,01,13,38,19.50
2019,04,01,13,39,19.60
2019,04,01,13,40,19.60
2019,04,01,13,41,19.60
2019,04,01,13,42,19.60
2019,04,01,13,43,19.60
2019,04,01,13,44,19.70
2019,04,01,13,45,19.60
2019,04,01,13,46,19.60
2019,04,01,13,47,19.60
2019,04,01,13,48,19.60
2019,04,01,13,49,19.60
2019,04,01,13,50,19.60
2019,04,01,13,51,19.60
2019,04,01,13,52,19.70
2019,04,01,13,53,19.70
2019,04,01,13,54,19.80
2019,04,01,13,55,19.90
2019,04,01,13,56,19.90
2019,04,01,13,57,19.80
2019,04,01,13,58,19.70
2019,04,01,13,59,19.60
2019,04,01,14,00,19.50
2019,04,01,14,01,19.30
2019,04,01,14,02,19.20
2019,04,01,14,03,19.10
2019,04,01,14,04,19.10
2019,04,01,14,05,19.10
2019,04,01,14,06,19.10
2019,04,01,14,07,19.10
2019,04,01,14,08,19.20
2019,04,01,14,09,19.30
2019,04,01,14,10,19.40
2019,04,01,14,11,19.50
2019,04,01,14,12,19.60
2019,04,01,14,13,19.70
2019,04,01,14,14,19.70
2019,04,01,14,15,19.60
2019,04,01,14,16,19.60
2019,04,01,14,17,19.60
2019,04,01,14,18,19.60
2019,04,01,14,19,19.70
2019,04,01,14,20,19.80
2019,04,01,14,21,19.90
2019,04,01,14,22,19.90
2019,04,01,14,23,19.80
2019,04,01,14,24,19.80
2019,04,01,14,25,19.80
2019,04,01,14,26,19.90
2019,04,01,14,27,19.90
2019,04,01,14,28,19.90
2019,04,01,14,29,19.80
2019,04,01,14,30,19.80
2019,04,01,14,31,19.80
2019,04,01,14,32,19.80
2019,04,01,14,33,19.80
2019,04,01,14,34,19.80
2019,04,01,14,35,19.80
2019,04,01,14,36,19.90
2019,04,01,14,37,20.00
2019,04,01,14,38,20.00
2019,04,01,14,39,19.90
2019,04,01,14,40,19.80
2019,04,01,14,41,19.70
2019,04,01,14,42,19.70
2019,04,01,14,43,19.60
2019,04,01,14,44,19.50
2019,04,01,14,45,19.50
2019,04,01,14,46,19.60
2019,04,01,14,47,19.60
2019,04,01,14,48,19.60
2019,04,01,14,49,19.60
2019,04,01,14,50,19.60
2019,04,01,14,51,19.60
2019,04,01,14,52,19.60
2019,04,01,14,53,19.60
2019,04,01,14,54,19.60
2019,04,01,14,55,19.60
2019,04,01,14,56,19.60
2019,04,01,14,57,19.60
2019,04,01,14,58,19.70
2019,04,01,14,59,19.70
2019,04,01,15,00,19.70
2019,04,01,15,01,19.60
2019,04,01,15,02,19.60
2019,04,01,15,03,19.50
2019,04,01,15,04,19.50
2019,04,01,15,05,19.40
2019,04,01,15,06,19.40
2019,04,01,15,07,19.40
2019,04,01,15,08,19.40
2019,04,01,15,09,19.40
2019,04,01,15,10,19.40
2019,04,01,15,11,19.30
2019,04,01,15,12,19.20
2019,04,01,15,13,19.20
2019,04,01,15,14,19.10
2019,04,01,15,15,19.10
2019,04,01,15,16,18.90
2019,04,01,15,17,18.90
2019,04,01,15,18,18.80
2019,04,01,15,19,18.70
2019,04,01,15,20,18.60
2019,04,01,15,21,18.60
2019,04,01,15,22,18.50
2019,04,01,15,23,18.50
2019,04,01,15,24,18.40
2019,04,01,15,25,18.40
2019,04,01,15,26,18.40
2019,04,01,15,27,18.40
2019,04,01,15,28,18.30
2019,04,01,15,29,18.30
2019,04,01,15,30,18.20
2019,04,01,15,31,18.20
2019,04,01,15,32,18.20
2019,04,01,15,33,18.10
2019,04,01,15,34,18.10
2019,04,01,15,35,18.00
2019,04,01,15,36,17.90
2019,04,01,15,37,17.90
2019,04,01,15,38,17.80
2019,04,01,15,39,17.80
2019,04,01,15,40,17.80
2019,04,01,15,41,17.90
2019,04,01,15,42,17.90
2019,04,01,15,43,18.00
2019,04,01,15,44,17.90
2019,04,01,15,45,17.90
2019,04,01,15,46,17.90
2019,04,01,15,47,17.90
2019,04,01,15,48,17.90
2019,04,01,15,49,17.90
2019,04,01,15,50,17.90
2019,04,01,15,51,17.90
2019,04,01,15,52,18.00
2019,04,01,15,53,18.00
2019,04,01,15,54,18.10
2019,04,01,15,55,18.10
2019,04,01,15,56,18.20
2019,04,01,15,57,18.20
2019,04,01,15,58,18.20
2019,04,01,15,59,18.10
2019,04,01,16,00,18.10
2019,04,01,16,01,18.00
2019,04,01,16,02,18.00
2019,04,01,16,03,18.00
2019,04,01,16,04,18.00
2019,04,01,16,05,18.10
2019,04,01,16,06,18.10
2019,04,01,16,07,18.10
2019,04,01,16,08,18.20
2019,04,01,16,09,18.30
2019,04,01,16,10,18.50
2019,04,01,16,11,18.60
2019,04,01,16,12,18.70
2019,04,01,16,13,18.80
2019,04,01,16,14,18.80
2019,04,01,16,15,18.80
2019,04,01,16,16,18.70
2019,04,01,16,17,18.60
2019,04,01,16,18,18.60
2019,04,01,16,19,18.50
2019,04,01,16,20,18.50
2019,04,01,16,21,18.50
2019,04,01,16,22,18.50
2019,04,01,16,23,18.50
2019,04,01,16,24,18.50
2019,04,01,16,25,18.60
2019,04,01,16,26,18.60
2019,04,01,16,27,18.50
2019,04,01,16,28,18.50
2019,04,01,16,29,18.40
2019,04,01,16,30,18.40
2019,04,01,16,31,18.40
2019,04,01,16,32,18.40
2019,04,01,16,33,18.30
2019,04,01,16,34,18.30
2019,04,01,16,35,18.30
2019,04,01,16,36,18.30
2019,04,01,16,37,18.40
2019,04,01,16,38,18.40
2019,04,01,16,39,18.60
2019,04,01,16,40,18.60
2019,04,01,16,41,18.70
2019,04,01,16,42,18.70
2019,04,01,16,43,18.70
2019,04,01,16,44,18.80
2019,04,01,16,45,18.90
2019,04,01,16,46,18.90
2019,04,01,16,47,18.90
2019,04,01,16,48,18.90
2019,04,01,16,49,18.90
2019,04,01,16,50,18.90
2019,04,01,16,51,18.90
2019,04,01,16,52,19.00
2019,04,01,16,53,19.00
2019,04,01,16,54,19.00
2019,04,01,16,55,19.00
2019,04,01,16,56,18.90
2019,04,01,16,57,18.90
2019,04,01,16,58,18.80
2019,04,01,16,59,18.80
2019,04,01,17,00,18.80
2019,04,01,17,01,18.70
2019,04,01,17,02,18.70
2019,04,01,17,03,18.70
2019,04,01,17,04,18.80
2019,04,01,17,05,18.80
2019,04,01,17,06,18.90
2019,04,01,17,07,18.90
2019,04,01,17,08,18.90
2019,04,01,17,09,19.00
2019,04,01,17,10,19.00
2019,04,01,17,11,18.90
2019,04,01,17,12,18.90
2019,04,01,17,13,18.90
2019,04,01,17,14,18.80
2019,04,01,17,15,18.80
2019,04,01,17,16,18.80
2019,04,01,17,17,18.80
2019,04,01,17,18,18.70
2019,04,01,17,19,18.70
2019,04,01,17,20,18.70
2019,04,01,17,21,18.60
2019,04,01,17,22,18.60
2019,04,01,17,23,18.60
2019,04,01,17,24,18.50
2019,04,01,17,25,18.40
2019,04,01,17,26,18.40
2019,04,01,17,27,18.30
2019,04,01,17,28,18.30
2019,04,01,17,29,18.30
2019,04,01,17,30,18.30
2019,04,01,17,31,18.30
2019,04,01,17,32,18.40
2019,04,01,17,33,18.40
2019,04,01,17,34,18.40
2019,04,01,17,35,18.40
2019,04,01,17,36,18.50
2019,04,01,17,37,18.50
2019,04,01,17,38,18.60
2019,04,01,17,39,18.60
2019,04,01,17,40,18.70
2019,04,01,17,41,18.80
2019,04,01,17,42,18.90
2019,04,01,17,43,19.00